[[{"header":{"parameterUnit":"m.s-1","parameterCategory":1,"la1":30.2991,"la2":30.254,"lo1":-89.0895,"lo2":-89.0444,"dy":0.0017,"dx":0.0017,"nx":28,"ny":28,"refTime":"2024-07-14T09:00:00:Z","depth":0,"parameterNumber":2,"parameterNumberName":"U-component_of_WINDS"},"data":[0,0,0,0,0,0,0,0,0,0,0,0,0,0,0,0,0,0,0,0,0,0,0,0,0,0,0,0,0,0,0,0,0,0,0,0,0,0,0,0,0,0,0,0,0,0,0,0,0,0,0,0,0,0,0,0,0,0,2.3811,2.3811,0,2.3834,2.3834,2.3834,2.3772,2.377,2.3768,2.3766,2.3793,2.3796,2.3798,0,0,0,0,0,0,0,0,0,0,0,0,0,2.3714,2.3716,2.3811,2.3811,2.3811,2.3834,2.3834,2.3834,2.3772,2.377,2.3767,2.3765,2.3793,2.3796,2.3799,0,0,0,0,0,0,0,0,0,0,0,0,0,2.3748,2.3716,2.3811,2.3783,2.378,2.3834,2.3834,2.3834,2.3772,2.377,2.3767,2.3764,2.3792,2.3795,2.3799,2.3882,0,0,2.3811,2.3812,0,0,0,0,0,0,0,0,2.3746,2.3752,2.3787,2.3785,2.3782,2.3797,2.381,2.385,2.3773,2.3776,2.3766,2.3762,2.3797,2.38,2.3811,2.3883,2.3884,2.3811,2.3813,2.3815,2.3816,0,0,0,0,0,0,0,2.3744,2.3751,2.382,2.3787,2.3785,2.3769,2.3771,2.3817,2.3803,2.3775,2.3771,2.3774,2.3795,2.3808,2.3811,2.3884,2.3811,2.3814,2.3817,2.3818,2.402,2.4023,0,0,0,0,0,0,2.3745,2.3749,2.3819,2.3821,2.3757,2.3774,2.3775,2.3795,2.3802,2.38,2.3777,2.3771,2.3803,2.3807,2.3812,2.3905,2.3815,2.3819,2.3821,2.4017,2.402,2.4024,0,0,0,0,0,0,2.3743,2.3752,2.3818,2.3784,2.3791,2.3778,2.3801,2.3797,2.3809,2.3803,2.38,2.3792,2.38,2.3807,2.3863,2.3906,2.382,2.3824,2.4013,2.4018,2.4022,2.4095,0,0,0,0,0,0,2.3741,2.3752,2.3783,2.3785,2.3793,2.3869,2.3804,2.38,2.3816,2.3809,2.3816,2.3815,2.3799,2.3858,2.3867,2.3909,2.3827,2.4009,2.4015,2.4021,2.4089,2.4101,2.4112,0,0,0,0,0,2.3737,2.3805,2.3785,2.3794,2.3832,2.3872,2.3876,2.3855,2.3819,2.385,2.3845,2.3815,2.39,2.3864,2.3874,2.3918,2.4006,2.4014,2.402,2.4083,2.4099,2.4112,0,0,0,0,0,0,2.3811,2.3804,2.3783,2.3852,2.3863,2.3861,2.39,2.3873,2.3895,2.3888,2.3862,2.3864,2.3925,2.3928,2.3888,2.3996,2.3947,2.3956,2.3992,2.4006,2.4018,2.4015,2.383,0,0,0,0,0,2.3835,2.3867,2.386,2.3922,2.3928,2.3913,2.393,2.3912,2.3923,2.3927,2.3927,2.3939,2.3967,2.3988,2.4014,2.4089,2.4088,2.4124,2.4136,2.4145,2.4153,2.4189,2.4203,2.4046,2.4046,2.4046,0,0,2.3885,2.3886,2.3908,2.3937,2.3943,2.3976,2.3917,2.3957,2.3981,2.3934,2.3985,2.3986,2.3997,2.4062,2.409,2.4066,2.4196,2.4154,2.4162,2.4164,2.4197,2.4212,2.4225,2.4051,2.405,2.4049,0,0,2.3993,2.3998,2.4048,2.4054,2.4062,2.4051,2.4063,2.4065,2.4062,2.4114,2.4077,2.4106,2.4158,2.4166,2.4177,2.4284,2.4255,2.4294,2.4355,2.439,2.4402,2.4413,2.4448,2.4461,2.4302,2.4302,2.4302,0,2.4055,2.4103,2.4077,2.4117,2.4129,2.4086,2.4135,2.4143,2.4161,2.417,2.4142,2.4202,2.4208,2.4271,2.4297,2.4309,2.432,2.4292,2.4402,2.4413,2.4422,2.4455,2.4469,2.4306,2.4306,2.4305,2.4305,0,2.4177,2.4211,2.425,2.4264,2.4282,2.4327,2.4307,2.4327,2.4307,2.4299,2.435,2.4354,2.4378,2.4393,2.4376,2.4453,2.4437,2.4407,2.4356,2.4442,2.4472,2.4485,2.4312,2.4311,2.431,2.4308,0,0,2.4333,2.433,2.4344,2.4348,2.4353,2.4379,2.4421,2.4442,2.4459,2.4472,2.4505,2.4548,2.4517,2.453,2.4513,2.4544,2.4623,2.4508,2.4508,2.4527,2.4705,2.4726,2.4741,2.4604,2.4607,2.4609,2.4703,0,2.4437,2.4506,2.4482,2.4553,2.4581,2.4538,2.4574,2.4581,2.4574,2.4597,2.459,2.4619,2.4579,2.4585,2.4614,2.4607,2.4658,2.4601,2.4633,2.4635,2.4629,2.4758,2.4781,2.487,2.4715,2.4717,2.4718,0,2.4567,2.4581,2.4654,2.4649,2.466,2.4693,2.4708,2.4732,2.4738,2.473,2.4742,2.4717,2.4756,2.4707,2.476,2.4721,2.4733,2.4732,2.4735,2.4735,2.468,2.4759,2.4898,2.491,2.4737,2.4736,2.4735,0,2.4669,2.4707,2.4754,2.4759,2.4756,2.4779,2.4779,2.4782,2.4795,2.4809,2.4817,2.4837,2.4847,2.4863,2.4843,2.481,2.4898,2.4848,2.4891,2.4891,2.491,2.4909,2.505,2.4923,2.4923,2.4922,2.4922,0,2.4786,2.4831,2.4799,2.4828,2.4876,2.4848,2.4897,2.4893,2.4894,2.4921,2.4887,2.4912,2.4886,2.4909,2.4895,2.4939,2.4945,2.4938,2.4933,2.494,2.494,2.4946,2.4938,2.4926,2.4925,2.4924,2.4924,0,2.4908,2.4888,2.4936,2.4927,2.4926,2.4962,2.4954,2.498,2.4969,2.5003,2.5009,2.4993,2.5018,2.5,2.5026,2.5016,2.5072,2.5061,2.507,2.5065,2.5108,2.5103,2.5256,2.5273,2.5137,2.5139,2.514,0,2.4982,2.5015,2.5008,2.5022,2.5023,2.5048,2.5059,2.5033,2.5046,2.5053,2.5077,2.5099,2.5114,2.5156,2.5147,2.5165,2.5152,2.5204,2.5155,2.5158,2.5149,2.5146,2.5147,2.5214,2.5215,2.5217,2.5218,0,2.5115,2.5102,2.512,2.5133,2.5147,2.5158,2.5165,2.5179,2.5151,2.5168,2.5192,2.5204,2.5228,2.5249,2.5263,2.5263,2.5235,2.5233,2.5243,2.5249,2.5252,2.5247,2.5094,2.523,2.5228,2.5228,2.5227,2.5226,2.5213,2.5238,2.5236,2.5256,2.5257,2.5264,2.5286,2.5276,2.5295,2.5311,2.5294,2.5322,2.5324,2.534,2.5343,2.5364,2.5342,2.5359,2.5362,2.5366,2.537,2.525,2.5367,2.5367,2.5366,2.5366,2.5366,0,2.534,2.5336,2.5354,2.5363,2.5378,2.5349,2.5354,2.5369,2.5393,2.5396,2.541,2.5436,2.5455,2.5446,2.5462,2.5481,2.5468,2.5486,2.5483,2.5482,2.539,2.5378,2.5495,2.5495,2.5495,2.5495,2.5495,2.5495,2.5408,2.5448,2.5435,2.5475,2.5471,2.5495,2.55,2.5506,2.5507,2.5536,2.5551,2.5544,2.5541,2.5557,2.5572,2.5569,2.5575,2.5597,2.5589,2.5502,2.549,2.5477,2.5465,2.5599,2.56,2.5679,2.568,2.568]},{"header":{"parameterUnit":"m.s-1","parameterCategory":1,"la1":30.2991,"la2":30.254,"lo1":-89.0895,"lo2":-89.0444,"dy":0.0017,"dx":0.0017,"nx":28,"ny":28,"refTime":"2024-07-14T09:00:00:Z","depth":0,"parameterNumber":3,"parameterNumberName":"V-component_of_WINDS"},"data":[0,0,0,0,0,0,0,0,0,0,0,0,0,0,0,0,0,0,0,0,0,0,0,0,0,0,0,0,0,0,0,0,0,0,0,0,0,0,0,0,0,0,0,0,0,0,0,0,0,0,0,0,0,0,0,0,0,0,5.5842,5.5844,0,5.5992,5.5993,5.5995,5.5966,5.5964,5.5961,5.5958,5.6103,5.6109,5.6115,0,0,0,0,0,0,0,0,0,0,0,0,0,5.5522,5.5528,5.5842,5.5844,5.5846,5.5991,5.5993,5.5995,5.5967,5.5963,5.596,5.5957,5.6101,5.6108,5.6116,0,0,0,0,0,0,0,0,0,0,0,0,0,5.5665,5.553,5.5842,5.5849,5.5851,5.5991,5.5993,5.5996,5.5967,5.5963,5.5959,5.5956,5.6098,5.6108,5.6117,5.6256,0,0,5.6146,5.615,0,0,0,0,0,0,0,0,5.5657,5.5677,5.5846,5.5849,5.5852,5.5956,5.5933,5.6083,5.5968,5.5923,5.5958,5.5954,5.6057,5.6069,5.6106,5.6263,5.6269,5.6147,5.6153,5.6157,5.6159,0,0,0,0,0,0,0,5.5647,5.567,5.5901,5.5849,5.5852,5.5842,5.5858,5.5962,5.601,5.5927,5.5925,5.5944,5.6057,5.6097,5.6109,5.6271,5.6147,5.6155,5.6161,5.6165,5.6545,5.6549,0,0,0,0,0,0,5.5636,5.5662,5.5896,5.5905,5.5743,5.5851,5.5869,5.5927,5.6009,5.6018,5.5947,5.5942,5.6083,5.6098,5.6114,5.628,5.6157,5.6166,5.6171,5.6541,5.6546,5.6551,0,0,0,0,0,0,5.5629,5.5657,5.589,5.5783,5.5812,5.5861,5.5926,5.5932,5.5971,5.6025,5.6032,5.5979,5.608,5.6101,5.6221,5.6285,5.617,5.6179,5.6536,5.6542,5.6548,5.6614,0,0,0,0,0,0,5.562,5.5655,5.5711,5.5785,5.5818,5.5997,5.593,5.5937,5.5989,5.5983,5.6057,5.6065,5.6079,5.6207,5.623,5.6296,5.6186,5.653,5.6539,5.6546,5.6607,5.6623,5.6636,0,0,0,0,0,5.5609,5.5722,5.5714,5.5742,5.5889,5.6001,5.602,5.6036,5.5994,5.6049,5.6082,5.6062,5.6274,5.6219,5.6245,5.6315,5.6526,5.6536,5.6546,5.66,5.6619,5.6636,0,0,0,0,0,0,5.5651,5.5732,5.5724,5.5865,5.5927,5.5996,5.6066,5.6056,5.6129,5.6121,5.6135,5.6151,5.6273,5.6306,5.6243,5.6452,5.6394,5.6409,5.6426,5.6445,5.6459,5.6448,5.6194,0,0,0,0,0,5.5678,5.5765,5.5829,5.5948,5.5979,5.6017,5.6067,5.6074,5.6137,5.6162,5.6205,5.6265,5.6344,5.6396,5.6473,5.6611,5.6625,5.6672,5.6686,5.6698,5.6711,5.6784,5.6804,5.6583,5.6583,5.6583,0,0,5.5732,5.5787,5.5841,5.5958,5.6006,5.6093,5.604,5.6134,5.6197,5.6176,5.6292,5.6325,5.6392,5.6521,5.658,5.6552,5.6775,5.6711,5.672,5.6726,5.6796,5.6817,5.6835,5.659,5.6589,5.6588,0,0,5.5875,5.5927,5.603,5.608,5.6156,5.618,5.6205,5.6276,5.6297,5.6415,5.64,5.6473,5.6611,5.6659,5.6701,5.6861,5.6844,5.6885,5.6961,5.7032,5.7049,5.7064,5.7119,5.7138,5.6898,5.6898,5.6898,0,5.5933,5.6066,5.6084,5.618,5.623,5.6217,5.6319,5.6366,5.6461,5.6494,5.6463,5.6634,5.6679,5.6817,5.6856,5.6892,5.6918,5.6876,5.7046,5.7061,5.7076,5.7128,5.7149,5.6902,5.6902,5.6901,5.6901,0,5.6131,5.6224,5.6297,5.6392,5.6451,5.6549,5.6579,5.6635,5.6636,5.6663,5.678,5.6833,5.6919,5.6952,5.6954,5.7091,5.7071,5.7043,5.6984,5.7101,5.715,5.717,5.6909,5.6907,5.6906,5.6905,0,0,5.6306,5.6409,5.6436,5.6477,5.6559,5.6628,5.6725,5.6811,5.6858,5.6923,5.7002,5.7118,5.7092,5.714,5.7146,5.7209,5.7328,5.7172,5.7173,5.7197,5.7479,5.7499,5.7522,5.7318,5.7322,5.7325,5.7472,0,5.6456,5.6629,5.6647,5.6801,5.6884,5.6872,5.6955,5.7011,5.7038,5.711,5.7138,5.722,5.718,5.7208,5.727,5.7301,5.7385,5.7291,5.7388,5.7391,5.7371,5.7548,5.757,5.7707,5.7492,5.7495,5.7498,0,5.6654,5.6727,5.6889,5.6957,5.6993,5.7068,5.7147,5.7217,5.728,5.7294,5.7348,5.7345,5.744,5.7379,5.7509,5.7444,5.7485,5.7506,5.7511,5.752,5.7451,5.7559,5.7751,5.7771,5.7528,5.7526,5.7524,0,5.6762,5.6901,5.7016,5.7052,5.7135,5.7187,5.7223,5.7282,5.7332,5.74,5.7432,5.7509,5.7551,5.761,5.7627,5.7581,5.7755,5.7695,5.7767,5.7766,5.7803,5.78,5.8002,5.7832,5.7832,5.7831,5.7831,0,5.6926,5.7025,5.7066,5.7136,5.7246,5.7263,5.737,5.7403,5.7455,5.7529,5.7522,5.7591,5.761,5.7681,5.7695,5.7798,5.7818,5.783,5.7832,5.783,5.7828,5.7856,5.7846,5.7837,5.7835,5.7834,5.7833,0,5.7066,5.7097,5.7221,5.7289,5.7308,5.7386,5.7442,5.7508,5.7533,5.7626,5.7649,5.7688,5.7771,5.7794,5.7893,5.7902,5.8023,5.8017,5.8003,5.8003,5.8072,5.8064,5.8297,5.8328,5.8139,5.8141,5.8142,0,5.7168,5.7244,5.7321,5.7371,5.741,5.7491,5.7542,5.7561,5.7614,5.769,5.7746,5.7829,5.7896,5.8029,5.8064,5.8138,5.8133,5.821,5.8144,5.8139,5.8132,5.8126,5.8133,5.8221,5.8223,5.8225,5.8226,0,5.7345,5.7356,5.7432,5.7513,5.7575,5.7639,5.77,5.7741,5.7768,5.7827,5.7914,5.7966,5.8068,5.8149,5.8224,5.8257,5.8245,5.8247,5.8267,5.8265,5.8253,5.8258,5.8035,5.8241,5.824,5.8239,5.8238,5.8237,5.7467,5.7534,5.7598,5.7682,5.773,5.7787,5.7852,5.7886,5.7959,5.8045,5.8051,5.8144,5.8201,5.8302,5.8339,5.8409,5.8386,5.8416,5.8423,5.843,5.8435,5.8243,5.8423,5.8423,5.8423,5.8422,5.8422,0,5.7642,5.7683,5.776,5.7847,5.7912,5.7898,5.7964,5.8018,5.8101,5.8157,5.8224,5.8321,5.8399,5.844,5.8517,5.8565,5.8561,5.8584,5.858,5.8587,5.8452,5.8426,5.8586,5.8586,5.8586,5.8586,5.8586,5.8586,5.7741,5.7852,5.787,5.8004,5.8043,5.8136,5.8174,5.8226,5.827,5.838,5.8446,5.8473,5.8522,5.8602,5.8672,5.8681,5.8709,5.8734,5.8741,5.8614,5.8597,5.8581,5.8556,5.8741,5.8741,5.887,5.8871,5.8872]}]]